PBO Station Position Time Series. Reference Frame : NAM14
Format Version,1.1.0
4-character ID,P250
Station name,SparlinRchCN2007
Begin Date, 2007-05-17
End Date, 2019-10-07
Release Date, 2019-10-08
Reference position, 36.9500354367 North Latitude, -121.2684389323 East Longitude, 584.68769 meters elevation,
Date, North (mm), East (mm), Vertical (mm), North Std. Deviation (mm), East Std. Deviation (mm),              Vertical Std. Deviation (mm), Quality,
2007-05-17,0.00, 0.00, 0.00, 1.98, 1.61, 7.31, repro,
2007-05-18,0.52, -0.33, 6.15, 2.04, 1.67, 7.48, repro,
2007-05-19,-0.11, -0.28, 6.97, 2.00, 1.62, 7.30, repro,
2007-05-20,0.52, 0.09, 6.87, 2.03, 1.66, 7.45, repro,
2007-05-21,1.69, 0.42, 1.25, 1.97, 1.61, 7.24, repro,
2007-05-22,0.25, 0.13, 10.13, 1.98, 1.61, 7.24, repro,
2007-05-23,0.52, -0.91, 7.15, 2.01, 1.64, 7.34, repro,
2007-05-24,-0.35, -0.56, 11.17, 2.13, 1.74, 7.83, repro,
2007-05-25,-0.45, -0.97, 6.61, 1.99, 1.62, 7.25, repro,
2007-05-26,-0.13, 0.28, 3.88, 1.98, 1.62, 7.26, repro,
2007-05-27,-0.24, 0.36, 5.42, 2.07, 1.71, 7.69, repro,
2007-05-28,0.45, 0.22, 1.35, 1.98, 1.60, 7.19, repro,
2007-05-29,-0.18, -0.65, 3.49, 1.97, 1.59, 7.17, repro,
2007-05-30,0.25, -0.90, 6.64, 2.03, 1.60, 7.31, repro,
2007-05-31,-0.36, -1.42, 2.62, 2.00, 1.62, 7.27, repro,
2007-06-01,-1.17, -0.38, 2.49, 1.94, 1.57, 7.07, repro,
2007-06-02,-0.98, -0.39, 2.91, 1.94, 1.58, 7.12, repro,
2007-06-03,1.08, 0.76, 4.08, 1.95, 1.58, 7.15, repro,
2007-06-04,0.32, 2.01, 4.06, 1.96, 1.58, 7.19, repro,
2007-06-05,1.18, -0.42, 2.37, 2.00, 1.60, 7.32, repro,
2007-06-06,1.36, -1.64, 9.83, 1.94, 1.58, 7.12, repro,
2007-06-07,1.00, -0.48, 7.57, 1.94, 1.58, 7.11, repro,
2007-06-08,0.58, -0.54, 3.66, 1.94, 1.58, 7.13, repro,
2007-06-09,0.42, -0.67, 5.62, 1.97, 1.62, 7.29, repro,
2007-06-10,1.26, 0.14, 4.26, 1.97, 1.61, 7.30, repro,
2007-06-11,0.41, 0.10, 3.79, 1.99, 1.68, 7.33, repro,
2007-06-12,-1.06, 0.22, 8.80, 1.98, 1.66, 7.27, repro,
2007-06-13,0.43, -0.91, 0.20, 2.00, 1.63, 7.27, repro,
2007-06-14,-0.05, -1.45, 2.42, 1.99, 1.63, 7.25, repro,
2007-06-15,0.72, -0.90, 5.05, 1.95, 1.58, 7.14, repro,
2007-06-16,0.29, -0.28, 4.64, 1.95, 1.58, 7.14, repro,
2007-06-17,0.42, -0.13, 1.41, 1.93, 1.58, 7.11, repro,
2007-06-18,0.71, -0.24, 9.26, 1.94, 1.58, 7.10, repro,
2007-06-19,1.21, 0.31, 3.16, 1.96, 1.58, 7.23, repro,
2007-06-20,0.30, 0.71, -0.62, 1.94, 1.58, 7.15, repro,
2007-06-21,-0.08, 0.38, -0.50, 1.95, 1.58, 7.15, repro,
2007-06-22,-0.16, -0.05, -0.42, 1.95, 1.58, 7.17, repro,
2007-06-23,0.76, -0.35, 3.10, 1.94, 1.58, 7.15, repro,
2007-06-24,0.84, -0.03, 1.72, 1.97, 1.62, 7.36, repro,
2007-06-25,-0.04, -0.08, 5.70, 1.95, 1.58, 7.19, repro,
2007-06-26,1.15, -0.85, -2.94, 1.96, 1.57, 7.15, repro,
2007-06-27,0.43, -0.61, -0.93, 1.95, 1.59, 7.23, repro,
2007-06-28,0.95, 0.49, -3.63, 1.94, 1.58, 7.16, repro,
2007-06-29,0.72, -0.15, 2.24, 1.93, 1.59, 7.17, repro,
2007-06-30,0.83, 0.78, 3.54, 1.94, 1.58, 7.18, repro,
2007-07-01,1.94, -0.01, 3.96, 1.94, 1.58, 7.17, repro,
2007-07-02,0.48, 0.15, 7.51, 1.95, 1.60, 7.26, repro,
2007-07-03,0.69, 0.40, 1.16, 1.95, 1.59, 7.23, repro,
2007-07-04,0.22, 0.28, 2.42, 1.95, 1.58, 7.22, repro,
2007-07-05,1.36, -0.67, 0.33, 1.94, 1.58, 7.15, repro,
2007-07-06,1.23, -1.11, 4.76, 1.95, 1.58, 7.18, repro,
2007-07-07,-1.21, 0.98, -0.61, 1.94, 1.58, 7.17, repro,
2007-07-08,-0.73, -0.53, 3.93, 1.96, 1.61, 7.29, repro,
2007-07-09,-0.31, 0.62, 3.57, 1.95, 1.58, 7.17, repro,
2007-07-10,0.47, -1.47, 4.38, 1.94, 1.58, 7.15, repro,
2007-07-11,-0.19, -1.24, -3.41, 1.94, 1.58, 7.13, repro,
2007-07-12,-0.78, 1.25, 3.49, 1.98, 1.64, 7.36, repro,
2007-07-13,-0.53, 0.04, 6.06, 1.99, 1.66, 7.40, repro,
2007-07-14,0.01, -0.29, -0.61, 1.98, 1.64, 7.30, repro,
2007-07-15,1.45, -0.69, -1.10, 1.97, 1.64, 7.34, repro,
2007-07-16,1.09, 0.42, 7.02, 1.97, 1.64, 7.36, repro,
2007-07-17,-1.83, -0.62, 7.67, 1.94, 1.60, 7.19, repro,
2007-07-18,0.26, -0.22, 10.02, 1.99, 1.65, 7.43, repro,
2007-07-19,-0.00, 0.83, 1.97, 2.05, 1.71, 7.66, repro,
2007-07-20,-0.21, 0.85, 4.23, 1.98, 1.66, 7.41, repro,
2007-07-21,0.16, 0.58, 1.33, 2.00, 1.64, 7.39, repro,
2007-07-22,0.87, -0.14, 7.23, 1.98, 1.64, 7.36, repro,
2007-07-23,2.36, 0.48, 1.37, 1.99, 1.65, 7.45, repro,
2007-07-24,-0.94, 1.66, 20.30, 2.03, 1.68, 7.57, repro,
2007-07-25,1.45, 0.05, 9.34, 1.99, 1.65, 7.44, repro,
2007-07-26,1.21, 0.86, 1.99, 1.95, 1.59, 7.20, repro,
2007-07-27,-0.14, 0.22, 6.33, 1.98, 1.64, 7.38, repro,
2007-07-28,1.10, -0.82, 6.75, 1.98, 1.66, 7.41, repro,
2007-07-29,0.71, 0.30, 10.67, 1.98, 1.66, 7.39, repro,
2007-07-30,0.12, 0.32, 8.10, 1.99, 1.67, 7.45, repro,
2007-07-31,0.34, -0.78, 7.57, 1.95, 1.59, 7.17, repro,
2007-08-01,0.27, 0.04, 10.52, 1.95, 1.59, 7.20, repro,
2007-08-02,0.44, 0.51, 12.45, 1.96, 1.59, 7.18, repro,
2007-08-03,1.68, -0.98, 7.83, 1.94, 1.59, 7.13, repro,
2007-08-04,1.47, -1.42, 10.56, 1.99, 1.60, 7.32, repro,
2007-08-05,0.66, -0.24, 3.83, 1.99, 1.59, 7.31, repro,
2007-08-06,0.17, 1.75, 9.24, 1.97, 1.62, 7.31, repro,
2007-08-07,-0.02, 0.86, 7.54, 1.96, 1.63, 7.36, repro,
2007-08-08,0.71, -0.16, 5.73, 1.93, 1.58, 7.12, repro,
2007-08-09,1.17, 0.83, 6.08, 1.95, 1.59, 7.22, repro,
2007-08-10,1.11, -1.06, 13.64, 1.93, 1.58, 7.13, repro,
2007-08-11,0.95, 1.04, 5.24, 1.95, 1.58, 7.16, repro,
2007-08-12,1.54, 0.68, 6.15, 1.94, 1.58, 7.14, repro,
2007-08-13,1.01, -1.08, 6.31, 1.94, 1.58, 7.08, repro,
2007-08-14,0.74, 1.20, 8.44, 2.19, 1.95, 8.19, repro,
2007-08-15,1.86, 1.09, 4.99, 2.05, 1.71, 7.55, repro,
2007-08-16,1.31, 0.83, 8.07, 2.01, 1.65, 7.47, repro,
2007-08-17,1.15, -0.40, 8.67, 2.03, 1.65, 7.49, repro,
2007-08-18,0.26, 0.72, 8.15, 2.06, 1.67, 7.67, repro,
2007-08-19,0.15, 0.40, 10.06, 2.05, 1.70, 7.76, repro,
2007-08-20,-0.00, -0.73, 7.65, 2.02, 1.65, 7.52, repro,
2007-08-21,1.92, 0.62, 6.54, 2.08, 1.65, 7.58, repro,
2007-08-22,1.56, 0.00, 5.44, 2.04, 1.65, 7.47, repro,
2007-08-23,0.27, -1.04, 11.25, 2.00, 1.60, 7.29, repro,
2007-08-24,0.29, 0.06, 10.92, 2.08, 1.67, 7.61, repro,
2007-08-25,0.89, -0.49, 9.47, 2.03, 1.66, 7.51, repro,
2007-08-26,1.69, -0.57, 15.52, 2.06, 1.71, 7.68, repro,
2007-08-27,-0.84, -2.57, 8.45, 2.06, 1.72, 7.73, repro,
2007-08-28,0.38, -0.41, 8.96, 2.03, 1.68, 7.51, repro,
2007-08-29,1.54, -1.30, 5.33, 2.04, 1.67, 7.53, repro,
2007-08-30,1.14, -0.20, 11.03, 2.04, 1.68, 7.57, repro,
2007-08-31,0.32, -2.01, 11.15, 2.03, 1.67, 7.50, repro,
2007-09-01,-0.22, -1.54, 13.26, 2.05, 1.67, 7.61, repro,
2007-09-02,1.00, -1.52, 5.63, 2.04, 1.68, 7.57, repro,
2007-09-03,0.63, -0.56, 11.05, 2.03, 1.67, 7.50, repro,
2007-09-04,0.37, -0.76, 8.42, 2.03, 1.67, 7.49, repro,
2007-09-05,-0.16, -2.54, 16.64, 2.05, 1.71, 7.64, repro,
2007-09-06,-0.18, -2.27, 14.10, 2.03, 1.67, 7.54, repro,
2007-09-07,0.62, -1.27, 6.49, 2.03, 1.68, 7.54, repro,
2007-09-08,1.40, -1.08, 7.74, 2.10, 1.76, 7.91, repro,
2007-09-09,0.57, -0.61, 10.46, 2.10, 1.76, 7.87, repro,
2007-09-10,1.05, -0.77, 5.71, 2.06, 1.67, 7.55, repro,
2007-09-11,-0.16, -1.04, 10.02, 2.06, 1.67, 7.53, repro,
2007-09-12,0.57, -1.62, 5.74, 2.09, 1.73, 7.79, repro,
2007-09-13,-0.30, -1.17, 7.67, 2.14, 1.70, 7.79, repro,
2007-09-14,0.20, -1.31, 5.38, 2.08, 1.71, 7.71, repro,
2007-09-15,-0.31, -1.60, 9.18, 2.14, 1.69, 7.85, repro,
2007-09-16,1.29, -0.98, 8.75, 2.12, 1.67, 7.73, repro,
2007-09-17,-0.00, -0.27, 9.51, 2.13, 1.76, 7.95, repro,
2007-09-18,-0.70, -1.37, 12.09, 2.09, 1.73, 7.72, repro,
2007-09-19,0.13, -2.59, 9.86, 1.96, 1.59, 7.18, repro,
2007-09-20,-0.19, 0.63, 7.30, 1.97, 1.60, 7.19, repro,
2007-09-21,0.61, -1.13, 13.74, 2.08, 1.67, 7.66, repro,
2007-09-22,-1.59, -0.33, 9.54, 2.05, 1.64, 7.53, repro,
2007-09-23,-0.09, -0.68, 11.39, 2.07, 1.71, 7.67, repro,
2007-09-24,-1.13, -0.89, 12.59, 2.09, 1.67, 7.68, repro,
2007-09-25,-2.11, -1.20, 3.86, 2.03, 1.62, 7.45, repro,
2007-09-26,0.16, -1.20, 14.56, 2.03, 1.64, 7.40, repro,
2007-09-27,-1.04, -1.43, 10.49, 2.03, 1.64, 7.56, repro,
2007-09-28,-1.97, -1.15, 14.64, 2.02, 1.68, 7.54, repro,
2007-09-29,-1.21, -0.87, 15.17, 2.04, 1.70, 7.62, repro,
2007-09-30,-1.17, -1.95, 15.15, 2.02, 1.70, 7.54, repro,
2007-10-01,-0.02, -1.36, 12.94, 2.03, 1.70, 7.58, repro,
2007-10-02,-0.33, -1.14, 13.93, 2.08, 1.74, 7.85, repro,
2007-10-03,0.32, -0.13, 14.09, 2.11, 1.75, 7.90, repro,
2007-10-04,-0.78, -0.35, 10.68, 2.03, 1.66, 7.55, repro,
2007-10-05,0.91, -1.57, 18.53, 2.07, 1.76, 7.91, repro,
2007-10-06,-2.01, -0.73, 19.26, 2.07, 1.71, 7.68, repro,
2007-10-07,-0.35, -1.24, 9.36, 2.08, 1.71, 7.70, repro,
2007-10-08,-0.01, -0.91, 11.19, 2.25, 1.80, 8.53, repro,
2007-10-09,-1.30, -0.88, 12.59, 2.17, 1.85, 8.25, repro,
2007-10-10,-1.26, 0.48, 16.34, 2.23, 1.79, 8.30, repro,
2007-10-11,-0.38, -0.76, 3.86, 2.01, 1.69, 7.54, repro,
2007-10-12,0.58, 0.07, 15.48, 1.99, 1.64, 7.46, repro,
2007-10-13,-0.19, -1.77, 12.49, 1.96, 1.63, 7.35, repro,
2007-10-14,0.96, -1.15, 10.88, 1.97, 1.64, 7.42, repro,
2007-10-15,-0.13, -0.35, 14.21, 1.97, 1.63, 7.39, repro,
2007-10-16,0.70, -0.51, 9.23, 1.97, 1.63, 7.38, repro,
2007-10-17,-1.64, -2.61, 15.09, 1.98, 1.64, 7.41, repro,
2007-10-18,0.36, 0.05, 7.92, 2.01, 1.71, 7.61, repro,
2007-10-19,-0.25, -1.19, 15.73, 1.95, 1.63, 7.38, repro,
2007-10-20,0.84, 1.27, 16.04, 1.98, 1.64, 7.46, repro,
2007-10-21,-0.65, -0.92, 9.76, 1.97, 1.64, 7.41, repro,
2007-10-22,0.37, -1.56, 5.22, 1.99, 1.63, 7.41, repro,
2007-10-23,0.07, 0.10, 8.79, 2.02, 1.70, 7.56, repro,
2007-10-24,-0.29, 0.48, 8.22, 2.05, 1.75, 7.81, repro,
2007-10-25,0.13, -0.36, 11.10, 1.96, 1.63, 7.36, repro,
2007-10-26,0.17, 0.11, 3.91, 2.01, 1.68, 7.51, repro,
2007-10-27,-0.04, -1.48, 7.14, 1.99, 1.64, 7.42, repro,
2007-10-28,-0.07, -0.86, 3.12, 1.97, 1.64, 7.39, repro,
2007-10-29,0.06, -1.71, 5.97, 1.98, 1.64, 7.45, repro,
2007-10-30,0.81, 0.07, 4.27, 1.97, 1.65, 7.41, repro,
2007-10-31,-0.55, 0.34, 10.08, 1.97, 1.63, 7.39, repro,
2007-11-01,0.62, -0.18, 6.15, 1.95, 1.61, 7.22, repro,
2007-11-02,0.06, -0.99, 5.38, 1.95, 1.61, 7.23, repro,
2007-11-03,-0.03, -0.54, 4.73, 1.94, 1.60, 7.18, repro,
2007-11-04,-0.10, -1.30, 9.93, 1.95, 1.60, 7.21, repro,
2007-11-05,0.84, -0.49, 6.88, 1.93, 1.60, 7.17, repro,
2007-11-06,0.72, -0.39, 4.48, 1.94, 1.59, 7.18, repro,
2007-11-07,0.46, -1.26, 6.09, 1.95, 1.61, 7.25, repro,
2007-11-08,-0.67, -0.87, 4.85, 1.97, 1.64, 7.30, repro,
2007-11-09,-1.81, -1.19, 7.03, 1.96, 1.64, 7.32, repro,
2007-11-10,-0.72, -0.24, 5.62, 1.94, 1.62, 7.29, repro,
2007-11-11,1.24, -0.17, 7.07, 1.93, 1.60, 7.25, repro,
2007-11-12,1.67, -1.32, 1.51, 1.94, 1.59, 7.21, repro,
2007-11-13,0.63, -0.47, 9.51, 1.96, 1.61, 7.31, repro,
2007-11-14,-0.86, -1.98, 9.18, 1.96, 1.61, 7.26, repro,
2007-11-15,1.15, -1.48, 0.98, 1.97, 1.63, 7.36, repro,
2007-11-16,1.08, -1.17, 2.32, 1.97, 1.63, 7.39, repro,
2007-11-17,1.21, -2.00, 0.59, 1.93, 1.58, 7.16, repro,
2007-11-18,2.16, -0.94, 3.23, 1.95, 1.61, 7.25, repro,
2007-11-19,1.56, -0.77, 2.50, 1.94, 1.60, 7.24, repro,
2007-11-20,0.69, -2.04, -2.14, 1.95, 1.65, 7.33, repro,
2007-11-21,0.48, -1.39, 4.49, 2.01, 1.71, 7.52, repro,
2007-11-22,0.87, -2.17, -0.10, 1.99, 1.67, 7.37, repro,
2007-11-23,0.87, -1.11, 0.66, 1.98, 1.70, 7.45, repro,
2007-11-24,1.18, -1.60, 3.45, 2.02, 1.71, 7.46, repro,
2007-11-25,1.61, -1.08, 4.18, 2.06, 1.77, 7.55, repro,
2007-11-26,2.01, -1.44, 0.93, 2.07, 1.75, 7.74, repro,
2007-11-27,1.57, -0.29, 1.83, 2.07, 1.74, 7.73, repro,
2007-11-28,0.82, -2.50, 0.06, 2.02, 1.71, 7.47, repro,
2007-11-29,0.50, -1.17, 1.09, 2.03, 1.69, 7.57, repro,
2007-11-30,1.34, -1.73, 1.74, 2.09, 1.76, 7.69, repro,
2007-12-01,0.32, -1.96, 8.26, 2.12, 1.84, 7.92, repro,
2007-12-02,1.56, -0.14, 4.76, 2.09, 1.82, 7.90, repro,
2007-12-03,1.69, -0.32, 0.38, 2.16, 1.81, 8.22, repro,
2007-12-04,1.15, -1.41, -0.81, 2.09, 1.81, 7.85, repro,
2007-12-05,0.33, 0.42, 1.52, 2.10, 1.81, 8.02, repro,
2007-12-06,2.58, -1.10, 4.26, 2.16, 1.85, 8.20, repro,
2007-12-07,-0.17, -2.77, 12.49, 2.27, 1.95, 8.59, repro,
2007-12-08,1.40, -0.65, 5.65, 2.10, 1.80, 7.77, repro,
2007-12-09,3.32, -0.41, -2.02, 2.33, 2.16, 9.02, repro,
2007-12-10,2.05, -1.72, 3.15, 2.06, 1.79, 7.71, repro,
2007-12-11,0.32, -1.68, 0.49, 2.09, 1.76, 7.72, repro,
2007-12-12,1.41, -0.84, -5.05, 2.17, 1.78, 8.07, repro,
2007-12-13,2.75, -0.33, -0.57, 2.10, 1.74, 7.77, repro,
2007-12-14,1.71, -0.34, 4.36, 2.02, 1.63, 7.50, repro,
2007-12-15,1.34, 0.54, 5.64, 2.01, 1.63, 7.46, repro,
2007-12-16,1.85, -1.03, 1.53, 2.01, 1.64, 7.47, repro,
2007-12-17,1.74, -0.22, 5.47, 2.07, 1.71, 7.66, repro,
2007-12-18,1.71, 0.60, 8.05, 2.02, 1.65, 7.56, repro,
2007-12-19,0.29, -1.57, 7.78, 2.08, 1.71, 7.75, repro,
2007-12-20,1.80, -1.85, 10.87, 2.00, 1.62, 7.41, repro,
2007-12-21,0.23, 1.11, 5.31, 2.16, 1.83, 8.22, repro,
2007-12-22,1.17, -2.62, 1.61, 2.10, 1.76, 7.96, repro,
2007-12-23,1.36, 0.06, 2.34, 2.06, 1.74, 7.74, repro,
2007-12-24,3.77, 0.38, 10.25, 2.09, 1.73, 7.73, repro,
2007-12-25,1.09, -0.55, 4.16, 2.01, 1.66, 7.51, repro,
2007-12-26,0.68, -2.16, 5.36, 2.03, 1.66, 7.49, repro,
2007-12-27,1.58, -0.67, 5.46, 2.05, 1.69, 7.67, repro,
2007-12-28,0.71, -0.43, 3.62, 2.08, 1.72, 7.81, repro,
2007-12-29,1.39, -1.18, 6.62, 2.04, 1.66, 7.57, repro,
2007-12-30,0.64, -0.15, 1.12, 2.05, 1.69, 7.62, repro,
2007-12-31,0.90, -1.42, 1.06, 1.99, 1.61, 7.36, repro,
2008-01-01,0.85, -0.01, -1.56, 2.00, 1.61, 7.37, repro,
2008-01-02,0.97, 0.66, -2.26, 2.00, 1.61, 7.34, repro,
2008-01-03,-0.79, -0.90, 9.64, 2.03, 1.64, 7.54, repro,
2008-01-04,0.08, -0.69, 5.55, 1.98, 1.59, 7.31, repro,
2008-01-05,0.05, -1.19, 11.38, 1.98, 1.59, 7.32, repro,
2008-01-06,0.89, -0.69, 3.59, 1.98, 1.58, 7.35, repro,
2008-01-07,1.12, 0.46, 5.94, 1.98, 1.59, 7.38, repro,
2008-01-08,-0.35, 0.25, 4.98, 2.04, 1.61, 7.60, repro,
2008-01-09,0.58, 1.02, 1.04, 2.04, 1.63, 7.54, repro,
2008-01-10,0.90, 0.01, -1.54, 1.96, 1.59, 7.29, repro,
2008-01-11,0.72, -0.26, -0.37, 1.96, 1.59, 7.29, repro,
2008-01-12,0.05, -0.68, -0.55, 1.98, 1.60, 7.37, repro,
2008-01-13,0.92, 0.30, -3.07, 1.97, 1.59, 7.33, repro,
2008-01-14,1.24, -0.42, -5.56, 1.96, 1.60, 7.29, repro,
2008-01-15,1.28, 0.20, 2.77, 1.95, 1.59, 7.24, repro,
2008-01-16,0.75, -0.50, 3.24, 1.99, 1.61, 7.36, repro,
2008-01-17,0.94, 0.17, 1.30, 2.00, 1.62, 7.43, repro,
2008-01-18,1.20, 0.08, -1.74, 2.00, 1.68, 7.61, repro,
2008-01-19,0.19, 0.14, -2.87, 1.96, 1.60, 7.29, repro,
2008-01-20,0.95, -0.14, 0.39, 1.95, 1.61, 7.26, repro,
2008-01-21,0.72, 0.31, 3.26, 1.95, 1.59, 7.24, repro,
2008-01-22,-0.60, 1.38, -1.18, 1.94, 1.59, 7.21, repro,
2008-01-23,0.09, -0.07, -1.20, 1.95, 1.59, 7.27, repro,
2008-01-24,-1.19, 1.33, -0.91, 1.98, 1.61, 7.42, repro,
2008-01-25,-0.98, 2.63, -8.42, 1.95, 1.59, 7.25, repro,
2008-01-26,-1.07, 1.58, -4.73, 1.95, 1.60, 7.27, repro,
2008-01-27,-0.43, 2.92, 6.08, 1.95, 1.61, 7.33, repro,
2008-01-28,0.69, 0.14, 5.36, 1.98, 1.60, 7.32, repro,
2008-01-29,-0.06, 0.63, 1.70, 2.04, 1.72, 7.59, repro,
2008-01-30,1.06, 1.22, -0.19, 2.06, 1.71, 7.76, repro,
2008-01-31,1.25, 0.40, -5.05, 1.94, 1.60, 7.28, repro,
2008-02-01,1.11, 0.42, -11.43, 1.94, 1.60, 7.25, repro,
2008-02-02,0.96, 1.03, -6.95, 1.93, 1.60, 7.22, repro,
2008-02-03,-0.16, 1.21, 0.33, 1.96, 1.60, 7.29, repro,
2008-02-04,2.00, 0.78, -1.63, 1.96, 1.61, 7.33, repro,
2008-02-05,1.49, 0.61, 1.86, 1.98, 1.67, 7.47, repro,
2008-02-06,2.61, 1.00, -7.28, 1.98, 1.67, 7.47, repro,
2008-02-07,1.33, 0.78, -7.93, 1.97, 1.63, 7.44, repro,
2008-02-08,0.39, 1.56, -1.38, 1.94, 1.60, 7.25, repro,
2008-02-09,-0.65, 0.92, 1.21, 1.95, 1.59, 7.24, repro,
2008-02-10,0.86, 0.66, -1.64, 1.96, 1.60, 7.29, repro,
2008-02-11,0.14, -0.29, 4.64, 1.94, 1.60, 7.25, repro,
2008-02-12,1.02, 0.69, -2.18, 1.94, 1.59, 7.24, repro,
2008-02-13,0.11, 0.09, 3.56, 1.93, 1.59, 7.18, repro,
2008-02-14,-0.30, 0.76, 2.66, 1.94, 1.59, 7.24, repro,
2008-02-15,0.78, 0.82, 1.39, 1.97, 1.64, 7.33, repro,
2008-02-16,-0.07, 0.14, 6.24, 1.94, 1.59, 7.24, repro,
2008-02-17,-0.03, 0.92, 0.78, 1.95, 1.60, 7.31, repro,
2008-02-18,0.18, 0.57, -1.04, 1.95, 1.60, 7.27, repro,
2008-02-19,0.14, 1.52, 0.62, 1.95, 1.60, 7.28, repro,
2008-02-20,-0.96, 0.87, 0.66, 1.94, 1.59, 7.20, repro,
2008-02-21,-1.08, 1.51, 2.79, 1.96, 1.60, 7.31, repro,
2008-02-22,-1.26, 0.40, 4.25, 1.94, 1.60, 7.23, repro,
2008-02-23,-0.52, 1.01, 4.33, 1.96, 1.62, 7.38, repro,
2008-02-24,0.34, 0.61, 7.64, 1.95, 1.61, 7.29, repro,
2008-02-25,0.77, 1.68, -2.81, 1.95, 1.60, 7.28, repro,
2008-02-26,-0.14, -0.03, -3.17, 1.95, 1.59, 7.25, repro,
2008-02-27,0.01, 0.82, -7.52, 1.99, 1.65, 7.49, repro,
2008-02-28,1.27, 1.04, -10.69, 2.02, 1.70, 7.73, repro,
2008-02-29,0.40, 0.12, -0.28, 1.98, 1.64, 7.40, repro,
2008-03-01,-0.05, 1.28, 0.78, 1.96, 1.60, 7.35, repro,
2008-03-02,-0.42, 0.74, -3.99, 2.00, 1.67, 7.57, repro,
2008-03-03,-0.06, 0.59, 2.07, 1.95, 1.59, 7.27, repro,
2008-03-04,0.80, 1.16, -0.90, 1.95, 1.60, 7.29, repro,
2008-03-05,0.71, 0.90, -1.18, 2.01, 1.70, 7.64, repro,
2008-03-06,0.69, 0.39, -2.25, 1.98, 1.64, 7.51, repro,
2008-03-07,1.65, -0.67, -2.14, 1.93, 1.59, 7.23, repro,
2008-03-08,-1.27, 0.91, 2.89, 1.98, 1.62, 7.50, repro,
2008-03-09,0.30, -0.16, 0.12, 1.98, 1.64, 7.54, repro,
2008-03-10,1.12, 0.52, -3.38, 1.94, 1.59, 7.23, repro,
2008-03-11,0.90, 0.01, -2.10, 1.95, 1.59, 7.27, repro,
2008-03-12,1.01, -0.37, -0.85, 1.98, 1.63, 7.47, repro,
2008-03-13,-0.30, 0.59, 4.43, 2.03, 1.72, 7.88, repro,
2008-03-14,0.51, 0.58, 1.28, 1.99, 1.63, 7.51, repro,
2008-03-15,0.18, -0.18, -1.00, 1.94, 1.61, 7.28, repro,
2008-03-16,0.34, 0.02, 1.37, 1.99, 1.66, 7.53, repro,
2008-03-17,1.00, 0.47, 0.87, 2.08, 1.76, 8.07, repro,
2008-03-18,0.79, -0.29, 1.50, 1.99, 1.66, 7.54, repro,
2008-03-19,0.27, 1.03, 0.96, 2.02, 1.66, 7.58, repro,
2008-03-20,0.22, 0.92, -2.29, 1.99, 1.63, 7.44, repro,
2008-03-21,2.09, 0.28, -4.69, 1.98, 1.63, 7.43, repro,
2008-03-22,1.13, -0.26, -1.56, 1.99, 1.63, 7.44, repro,
2008-03-23,0.91, -0.39, -4.35, 1.99, 1.62, 7.43, repro,
2008-03-24,0.54, -0.83, -0.99, 1.98, 1.62, 7.42, repro,
2008-03-25,0.88, 0.56, -1.51, 2.02, 1.67, 7.53, repro,
2008-03-26,0.22, -0.39, -2.20, 2.01, 1.66, 7.49, repro,
2008-03-27,1.18, -1.07, -3.67, 2.00, 1.66, 7.51, repro,
2008-03-28,0.85, -1.25, -1.39, 1.99, 1.62, 7.38, repro,
2008-03-29,-0.16, -0.09, 6.03, 1.98, 1.59, 7.36, repro,
2008-03-30,-0.30, 1.20, -0.46, 1.97, 1.59, 7.35, repro,
2008-03-31,0.76, 0.91, -3.33, 1.97, 1.60, 7.40, repro,
2008-04-01,-0.07, -0.40, 2.20, 1.97, 1.60, 7.35, repro,
2008-04-02,1.00, -0.93, 0.38, 2.02, 1.59, 7.49, repro,
2008-04-03,0.31, -0.30, -1.38, 1.97, 1.58, 7.30, repro,
2008-04-04,-0.57, -0.03, -0.78, 1.99, 1.59, 7.40, repro,
2008-04-05,0.15, -0.02, 10.72, 1.97, 1.58, 7.27, repro,
2008-04-06,1.15, 0.39, -1.66, 1.97, 1.59, 7.38, repro,
2008-04-07,0.46, 0.05, 3.81, 1.97, 1.59, 7.36, repro,
2008-04-08,-0.27, -0.00, -0.77, 1.96, 1.58, 7.31, repro,
2008-04-09,-0.07, 0.31, 2.91, 1.98, 1.58, 7.36, repro,
2008-04-10,1.43, 0.96, 1.09, 1.97, 1.58, 7.29, repro,
2008-04-11,0.37, -0.26, 4.71, 1.97, 1.59, 7.38, repro,
2008-04-12,0.19, -0.79, 6.75, 1.97, 1.59, 7.37, repro,
2008-04-13,-0.10, -1.74, 4.70, 1.97, 1.58, 7.37, repro,
2008-04-14,0.55, -1.21, 2.11, 2.04, 1.68, 7.60, repro,
2008-04-15,0.50, -0.75, 1.50, 2.01, 1.63, 7.43, repro,
2008-04-16,0.66, -0.83, 1.54, 2.01, 1.63, 7.46, repro,
2008-04-17,-0.11, -0.94, 4.42, 1.98, 1.59, 7.41, repro,
2008-04-18,0.14, -0.18, 3.85, 1.98, 1.59, 7.38, repro,
2008-04-19,0.48, 1.30, -3.41, 1.98, 1.58, 7.39, repro,
2008-04-20,1.06, 0.05, -0.80, 1.97, 1.57, 7.30, repro,
2008-04-21,0.06, 0.58, 0.75, 1.97, 1.57, 7.31, repro,
2008-04-22,-0.33, 0.07, 5.98, 2.04, 1.62, 7.56, repro,
2008-04-23,-1.00, -0.51, 6.51, 2.04, 1.66, 7.67, repro,
2008-04-24,0.03, 0.47, -0.45, 2.01, 1.62, 7.59, repro,
2008-04-25,0.26, 0.45, 4.27, 1.99, 1.58, 7.37, repro,
2008-04-26,0.12, 0.00, -2.10, 2.07, 1.61, 7.61, repro,
2008-04-27,0.45, 0.04, 3.86, 2.12, 1.66, 7.74, repro,
2008-04-28,0.37, 0.20, 2.62, 2.10, 1.62, 7.70, repro,
2008-04-29,1.66, -0.64, 0.76, 2.15, 1.70, 7.90, repro,
2008-04-30,-1.20, -0.24, 3.34, 2.06, 1.65, 7.62, repro,
2008-05-01,0.93, -0.37, -0.00, 2.03, 1.61, 7.43, repro,
2008-05-02,-0.19, 0.00, 4.18, 2.06, 1.63, 7.54, repro,
2008-05-03,0.12, 0.34, 5.22, 2.04, 1.61, 7.51, repro,
2008-05-04,-0.07, -0.69, 1.42, 2.00, 1.58, 7.40, repro,
2008-05-05,1.15, -0.08, -2.37, 2.02, 1.62, 7.48, repro,
2008-05-06,0.07, 0.38, -1.90, 2.03, 1.61, 7.47, repro,
2008-05-07,0.93, 0.15, 1.13, 2.02, 1.60, 7.46, repro,
2008-05-08,-0.31, 0.33, 3.84, 2.18, 1.70, 7.93, repro,
2008-05-09,0.05, -0.24, 5.86, 2.08, 1.67, 7.69, repro,
2008-05-10,-0.39, 1.31, 4.89, 2.07, 1.67, 7.69, repro,
2008-05-11,0.67, 0.92, -0.46, 2.07, 1.66, 7.61, repro,
2008-05-12,-1.11, -0.36, 7.70, 2.04, 1.61, 7.56, repro,
2008-05-13,-0.56, 0.27, 7.95, 2.01, 1.58, 7.38, repro,
2008-05-14,0.74, -0.38, 4.98, 2.04, 1.60, 7.49, repro,
2008-05-15,-0.06, -0.88, 2.83, 2.01, 1.59, 7.43, repro,
2008-05-16,0.02, 0.71, 0.47, 2.00, 1.58, 7.35, repro,
2008-05-17,0.10, -0.76, 0.23, 2.04, 1.61, 7.51, repro,
2008-05-18,-0.51, 0.70, 7.57, 2.06, 1.62, 7.57, repro,
2008-05-19,-0.51, 1.19, 1.99, 1.99, 1.58, 7.36, repro,
2008-05-20,0.83, 0.90, 6.96, 2.03, 1.61, 7.52, repro,
2008-05-21,0.77, 0.42, -1.68, 1.99, 1.59, 7.46, repro,
2008-05-22,2.30, 0.15, 11.71, 2.00, 1.63, 7.53, repro,
2008-05-23,0.30, 0.72, 6.85, 2.00, 1.62, 7.56, repro,
2008-05-24,0.10, -0.53, 4.42, 1.99, 1.58, 7.38, repro,
2008-05-25,-0.21, 0.54, 6.73, 2.02, 1.64, 7.57, repro,
2008-05-26,-0.69, 0.70, 5.49, 2.00, 1.62, 7.47, repro,
2008-05-27,0.64, -0.13, 1.40, 2.00, 1.59, 7.47, repro,
2008-05-28,0.69, 0.41, -2.71, 2.01, 1.59, 7.48, repro,
2008-05-29,0.90, 0.52, 2.31, 2.06, 1.69, 7.69, repro,
2008-05-30,0.70, 1.09, 3.37, 1.99, 1.58, 7.36, repro,
2008-05-31,1.02, 1.42, 1.59, 1.99, 1.57, 7.34, repro,
2008-06-01,1.24, 1.77, -1.43, 1.98, 1.58, 7.37, repro,
2008-06-02,0.58, 1.95, -0.13, 1.99, 1.58, 7.43, repro,
2008-06-03,0.58, 1.17, 5.97, 2.05, 1.66, 7.73, repro,
2008-06-04,2.33, 2.35, 2.91, 1.99, 1.58, 7.40, repro,
2008-06-05,0.11, 0.15, 7.55, 1.98, 1.58, 7.34, repro,
2008-06-06,1.38, 0.41, 1.85, 2.02, 1.60, 7.46, repro,
2008-06-07,1.00, -0.07, 8.31, 2.04, 1.65, 7.61, repro,
2008-06-08,0.36, 0.97, 6.83, 2.11, 1.66, 7.69, repro,
2008-06-09,0.30, 0.30, 8.73, 2.05, 1.63, 7.51, repro,
2008-06-10,0.55, -0.14, 5.17, 1.99, 1.57, 7.31, repro,
2008-06-11,1.01, -0.07, 9.11, 1.99, 1.57, 7.32, repro,
2008-06-12,0.49, 0.83, 7.54, 2.03, 1.61, 7.53, repro,
2008-06-13,1.08, 0.59, 5.47, 1.99, 1.58, 7.33, repro,
2008-06-14,1.51, 0.23, 6.66, 2.05, 1.60, 7.44, repro,
2008-06-15,0.63, 0.32, 3.66, 2.04, 1.60, 7.42, repro,
2008-06-16,0.98, 0.73, 6.34, 1.99, 1.57, 7.33, repro,
2008-06-17,1.73, 0.87, 2.54, 1.99, 1.57, 7.29, repro,
2008-06-18,1.18, 1.39, 2.71, 2.01, 1.58, 7.40, repro,
2008-06-19,1.72, 0.66, 3.26, 2.06, 1.68, 7.78, repro,
2008-06-20,0.87, 0.27, 5.69, 1.99, 1.56, 7.31, repro,
2008-06-21,0.87, -2.06, 3.97, 2.04, 1.64, 7.56, repro,
2008-06-22,0.53, 0.41, -1.90, 2.04, 1.62, 7.53, repro,
2008-06-23,0.58, 1.09, 6.43, 2.02, 1.59, 7.43, repro,
2008-06-24,0.39, 1.02, 5.85, 2.05, 1.65, 7.58, repro,
2008-06-25,-0.63, 0.09, 5.14, 2.02, 1.62, 7.42, repro,
2008-06-26,0.10, 0.61, 10.56, 2.04, 1.67, 7.57, repro,
2008-06-27,1.56, -0.29, 6.86, 1.99, 1.56, 7.31, repro,
2008-06-28,2.70, 0.27, 2.40, 2.05, 1.64, 7.56, repro,
2008-06-29,0.76, 0.09, 3.28, 2.04, 1.63, 7.48, repro,
2008-06-30,0.90, -0.63, 0.94, 1.99, 1.55, 7.25, repro,
2008-07-01,0.30, -0.13, 9.35, 2.01, 1.62, 7.41, repro,
2008-07-02,1.17, 0.11, 7.07, 1.98, 1.56, 7.25, repro,
2008-07-03,0.70, -0.29, 2.19, 2.00, 1.58, 7.37, repro,
2008-07-04,-0.50, 1.66, 7.44, 2.00, 1.57, 7.35, repro,
2008-07-05,0.40, 1.37, 3.57, 2.01, 1.57, 7.35, repro,
2008-07-06,0.01, -0.10, 9.46, 1.99, 1.57, 7.28, repro,
2008-07-07,0.23, -0.75, 14.82, 2.02, 1.64, 7.45, repro,
2008-07-08,-0.11, -0.00, 10.24, 2.00, 1.57, 7.33, repro,
2008-07-09,1.16, -0.24, 12.92, 2.06, 1.63, 7.55, repro,
2008-07-10,0.90, 0.40, 12.92, 2.06, 1.60, 7.48, repro,
2008-07-11,1.17, 1.47, 10.73, 2.10, 1.67, 7.64, repro,
2008-07-12,0.15, -1.25, 12.21, 2.00, 1.60, 7.40, repro,
2008-07-13,0.26, -0.33, 6.45, 2.06, 1.70, 7.63, repro,
2008-07-14,-0.61, -0.09, 10.32, 2.03, 1.60, 7.44, repro,
2008-07-15,0.17, 0.63, 1.60, 1.99, 1.56, 7.29, repro,